Time,TemperatureF,DewpointF,PressureIn,WindDirection,WindDirectionDegrees,WindSpeedMPH,WindSpeedGustMPH,Humidity,HourlyPrecipIn,Conditions,Clouds,dailyrainin,SoftwareType,DateUTC
2013-01-07 00:00:00,37.6,30.1,30.17,WSW,239,2.0,2.0,74,0.00,,,0.00,Wunderground v.1.15,2013-01-07 05:00:00,
2013-01-07 00:05:00,37.6,29.7,30.17,NNE,29,2.0,2.0,73,0.00,,,0.00,Wunderground v.1.15,2013-01-07 05:05:00,
2013-01-07 00:09:00,37.6,30.1,30.18,North,356,1.0,1.0,74,0.00,,,0.00,Wunderground v.1.15,2013-01-07 05:09:00,
2013-01-07 00:15:00,37.6,30.4,30.18,WNW,301,1.0,1.0,75,0.00,,,0.00,Wunderground v.1.15,2013-01-07 05:15:00,
2013-01-07 00:19:00,37.5,30.6,30.18,West,278,1.0,2.0,76,0.00,,,0.00,Wunderground v.1.15,2013-01-07 05:19:00,
2013-01-07 00:25:00,37.5,30.6,30.18,WNW,283,1.0,2.0,76,0.00,,,0.00,Wunderground v.1.15,2013-01-07 05:25:00,
2013-01-07 00:29:00,37.6,30.4,30.18,WNW,283,0.0,0.0,75,0.00,,,0.00,Wunderground v.1.15,2013-01-07 05:29:00,
2013-01-07 00:35:00,37.9,30.7,30.18,West,274,0.0,3.0,75,0.00,,,0.00,Wunderground v.1.15,2013-01-07 05:35:00,
2013-01-07 00:40:00,38.4,30.8,30.19,NW,318,1.0,1.0,74,0.00,,,0.00,Wunderground v.1.15,2013-01-07 05:40:00,
2013-01-07 00:45:00,38.9,31.0,30.19,NW,317,2.0,3.0,73,0.00,,,0.00,Wunderground v.1.15,2013-01-07 05:45:00,
2013-01-07 00:50:00,39.7,31.1,30.19,NNE,16,2.0,2.0,71,0.00,,,0.00,Wunderground v.1.15,2013-01-07 05:50:00,
2013-01-07 00:54:00,39.7,31.1,30.19,North,355,2.0,2.0,71,0.00,,,0.00,Wunderground v.1.15,2013-01-07 05:54:00,
2013-01-07 01:00:00,39.7,30.7,30.19,NW,324,2.0,3.0,70,0.00,,,0.00,Wunderground v.1.15,2013-01-07 06:00:00,
2013-01-07 01:05:00,40.1,30.7,30.20,NNW,327,2.0,3.0,69,0.00,,,0.00,Wunderground v.1.15,2013-01-07 06:05:00,
2013-01-07 01:10:00,40.3,30.6,30.20,WNW,295,3.0,3.0,68,0.00,,,0.00,Wunderground v.1.15,2013-01-07 06:10:00,
2013-01-07 01:14:00,40.4,30.7,30.20,NW,305,3.0,3.0,68,0.00,,,0.00,Wunderground v.1.15,2013-01-07 06:14:00,
2013-01-07 01:20:00,40.5,30.4,30.20,NW,316,4.0,4.0,67,0.00,,,0.00,Wunderground v.1.15,2013-01-07 06:20:00,
2013-01-07 01:24:00,40.6,30.5,30.20,NW,305,4.0,4.0,67,0.00,,,0.00,Wunderground v.1.15,2013-01-07 06:24:00,
2013-01-07 01:30:00,40.5,30.4,30.21,NW,318,5.0,9.0,67,0.00,,,0.00,Wunderground v.1.15,2013-01-07 06:30:00,
2013-01-07 01:34:00,40.4,30.3,30.21,NW,308,5.0,9.0,67,0.00,,,0.00,Wunderground v.1.15,2013-01-07 06:34:00,
2013-01-07 01:40:00,40.3,30.2,30.21,NW,316,5.0,5.0,67,0.00,,,0.00,Wunderground v.1.15,2013-01-07 06:40:00,
2013-01-07 01:44:00,40.2,30.1,30.21,NW,311,4.0,7.0,67,0.00,,,0.00,Wunderground v.1.15,2013-01-07 06:44:00,
2013-01-07 01:50:00,40.1,30.0,30.22,NW,314,4.0,4.0,67,0.00,,,0.00,Wunderground v.1.15,2013-01-07 06:50:00,
2013-01-07 01:54:00,39.9,30.2,30.22,WNW,290,4.0,4.0,68,0.00,,,0.00,Wunderground v.1.15,2013-01-07 06:54:00,
2013-01-07 02:00:00,39.7,30.0,30.23,WSW,242,4.0,4.0,68,0.00,,,0.00,Wunderground v.1.15,2013-01-07 07:00:00,
2013-01-07 02:05:00,39.6,29.9,30.23,NNW,344,4.0,6.0,68,0.00,,,0.00,Wunderground v.1.15,2013-01-07 07:05:00,
2013-01-07 02:15:00,39.4,30.1,30.23,West,266,2.0,3.0,69,0.00,,,0.00,Wunderground v.1.15,2013-01-07 07:15:00,
2013-01-07 02:19:00,39.5,29.8,30.24,NW,314,2.0,2.0,68,0.00,,,0.00,Wunderground v.1.15,2013-01-07 07:19:00,
2013-01-07 02:25:00,39.5,29.4,30.23,West,280,3.0,3.0,67,0.00,,,0.00,Wunderground v.1.15,2013-01-07 07:25:00,
2013-01-07 02:29:00,39.5,29.8,30.24,WNW,293,2.0,2.0,68,0.00,,,0.00,Wunderground v.1.15,2013-01-07 07:29:00,
2013-01-07 02:35:00,39.3,30.0,30.24,NNW,328,1.0,2.0,69,0.00,,,0.00,Wunderground v.1.15,2013-01-07 07:35:00,
2013-01-07 02:39:00,39.2,29.5,30.24,West,274,1.0,1.0,68,0.00,,,0.00,Wunderground v.1.15,2013-01-07 07:39:00,
2013-01-07 02:45:00,39.2,29.9,30.24,WNW,284,1.0,1.0,69,0.00,,,0.00,Wunderground v.1.15,2013-01-07 07:45:00,
2013-01-07 02:49:00,39.1,29.4,30.25,North,357,1.0,1.0,68,0.00,,,0.00,Wunderground v.1.15,2013-01-07 07:49:00,
2013-01-07 02:55:00,39.2,29.5,30.25,West,275,1.0,1.0,68,0.00,,,0.00,Wunderground v.1.15,2013-01-07 07:55:00,
2013-01-07 03:00:00,39.2,29.5,30.25,WNW,290,1.0,1.0,68,0.00,,,0.00,Wunderground v.1.15,2013-01-07 08:00:00,
2013-01-07 03:05:00,39.2,29.5,30.25,WNW,294,1.0,1.0,68,0.00,,,0.00,Wunderground v.1.15,2013-01-07 08:05:00,
2013-01-07 03:09:00,39.2,29.5,30.25,NW,312,1.0,3.0,68,0.00,,,0.00,Wunderground v.1.15,2013-01-07 08:09:00,
2013-01-07 03:15:00,39.1,29.8,30.25,WNW,285,1.0,3.0,69,0.00,,,0.00,Wunderground v.1.15,2013-01-07 08:15:00,
2013-01-07 03:25:00,38.7,29.4,30.25,WNW,292,1.0,1.0,69,0.00,,,0.00,Wunderground v.1.15,2013-01-07 08:25:00,
2013-01-07 03:29:00,38.8,29.5,30.25,NW,321,1.0,1.0,69,0.00,,,0.00,Wunderground v.1.15,2013-01-07 08:29:00,
2013-01-07 03:35:00,38.7,29.4,30.25,NW,318,1.0,1.0,69,0.00,,,0.00,Wunderground v.1.15,2013-01-07 08:35:00,
2013-01-07 03:45:00,38.4,29.8,30.26,WNW,288,0.0,0.0,71,0.00,,,0.00,Wunderground v.1.15,2013-01-07 08:45:00,
2013-01-07 03:50:00,38.3,29.4,30.26,WNW,297,1.0,1.0,70,0.00,,,0.00,Wunderground v.1.15,2013-01-07 08:50:00,
2013-01-07 03:55:00,38.3,29.7,30.26,NNE,32,1.0,4.0,71,0.00,,,0.00,Wunderground v.1.15,2013-01-07 08:55:00,
2013-01-07 04:00:00,38.4,29.1,30.26,NW,310,1.0,5.0,69,0.00,,,0.00,Wunderground v.1.15,2013-01-07 09:00:00,
2013-01-07 04:05:00,38.7,29.0,30.26,WNW,293,2.0,5.0,68,0.00,,,0.00,Wunderground v.1.15,2013-01-07 09:05:00,
2013-01-07 04:10:00,38.7,29.0,30.26,NW,309,2.0,2.0,68,0.00,,,0.00,Wunderground v.1.15,2013-01-07 09:10:00,
2013-01-07 04:15:00,38.7,28.7,30.26,WSW,257,2.0,2.0,67,0.00,,,0.00,Wunderground v.1.15,2013-01-07 09:15:00,
2013-01-07 04:20:00,38.7,28.7,30.26,North,351,2.0,2.0,67,0.00,,,0.00,Wunderground v.1.15,2013-01-07 09:20:00,
2013-01-07 04:25:00,38.6,28.9,30.26,WNW,295,1.0,2.0,68,0.00,,,0.00,Wunderground v.1.15,2013-01-07 09:25:00,
2013-01-07 04:30:00,38.6,28.9,30.27,NNW,338,2.0,2.0,68,0.00,,,0.00,Wunderground v.1.15,2013-01-07 09:30:00,
2013-01-07 04:34:00,38.4,28.8,30.27,North,359,2.0,2.0,68,0.00,,,0.00,Wunderground v.1.15,2013-01-07 09:34:00,
2013-01-07 04:40:00,38.3,29.0,30.27,NW,319,1.0,1.0,69,0.00,,,0.00,Wunderground v.1.15,2013-01-07 09:40:00,
2013-01-07 04:50:00,37.9,29.0,30.28,West,280,1.0,1.0,70,0.00,,,0.00,Wunderground v.1.15,2013-01-07 09:50:00,
2013-01-07 04:55:00,37.9,28.6,30.28,NW,309,1.0,2.0,69,0.00,,,0.00,Wunderground v.1.15,2013-01-07 09:55:00,
2013-01-07 05:00:00,38.0,28.4,30.28,NNW,332,2.0,2.0,68,0.00,,,0.00,Wunderground v.1.15,2013-01-07 10:00:00,
2013-01-07 05:04:00,38.0,28.4,30.28,NW,314,2.0,2.0,68,0.00,,,0.00,Wunderground v.1.15,2013-01-07 10:04:00,
2013-01-07 05:10:00,37.9,28.6,30.29,WNW,283,2.0,2.0,69,0.00,,,0.00,Wunderground v.1.15,2013-01-07 10:10:00,
2013-01-07 05:20:00,37.8,28.5,30.29,NW,313,2.0,2.0,69,0.00,,,0.00,Wunderground v.1.15,2013-01-07 10:20:00,
2013-01-07 05:30:00,37.9,28.3,30.29,WNW,295,3.0,3.0,68,0.00,,,0.00,Wunderground v.1.15,2013-01-07 10:30:00,
2013-01-07 05:34:00,37.9,28.3,30.30,WNW,288,3.0,3.0,68,0.00,,,0.00,Wunderground v.1.15,2013-01-07 10:34:00,
2013-01-07 05:40:00,37.9,28.3,30.30,NNW,333,3.0,3.0,68,0.00,,,0.00,Wunderground v.1.15,2013-01-07 10:40:00,
2013-01-07 05:44:00,37.8,28.5,30.30,NNW,329,2.0,3.0,69,0.00,,,0.00,Wunderground v.1.15,2013-01-07 10:44:00,
2013-01-07 05:50:00,37.6,28.3,30.30,NW,323,2.0,3.0,69,0.00,,,0.00,Wunderground v.1.15,2013-01-07 10:50:00,
2013-01-07 05:54:00,37.6,28.3,30.31,NW,316,3.0,3.0,69,0.00,,,0.00,Wunderground v.1.15,2013-01-07 10:54:00,
2013-01-07 06:00:00,37.5,28.6,30.31,North,4,3.0,5.0,70,0.00,,,0.00,Wunderground v.1.15,2013-01-07 11:00:00,
2013-01-07 06:05:00,37.4,28.5,30.32,NW,305,4.0,5.0,70,0.00,,,0.00,Wunderground v.1.15,2013-01-07 11:05:00,
2013-01-07 06:10:00,37.3,28.4,30.32,WNW,303,4.0,4.0,70,0.00,,,0.00,Wunderground v.1.15,2013-01-07 11:10:00,
2013-01-07 06:15:00,37.2,28.3,30.32,NNE,18,4.0,6.0,70,0.00,,,0.00,Wunderground v.1.15,2013-01-07 11:15:00,
2013-01-07 06:20:00,37.2,28.3,30.32,NW,316,5.0,6.0,70,0.00,,,0.00,Wunderground v.1.15,2013-01-07 11:20:00,
2013-01-07 06:29:00,37.1,28.2,30.33,NNW,347,6.0,6.0,70,0.00,,,0.00,Wunderground v.1.15,2013-01-07 11:29:00,
2013-01-07 06:35:00,37.0,28.1,30.33,NNE,13,4.0,6.0,70,0.00,,,0.00,Wunderground v.1.15,2013-01-07 11:35:00,
2013-01-07 06:39:00,36.9,28.0,30.34,NNE,12,4.0,7.0,70,0.00,,,0.00,Wunderground v.1.15,2013-01-07 11:39:00,
2013-01-07 06:45:00,36.8,28.3,30.34,North,9,5.0,7.0,71,0.00,,,0.00,Wunderground v.1.15,2013-01-07 11:45:00,
2013-01-07 06:50:00,36.7,28.2,30.34,North,1,5.0,5.0,71,0.00,,,0.00,Wunderground v.1.15,2013-01-07 11:50:00,
2013-01-07 06:55:00,36.6,28.1,30.34,NW,310,5.0,8.0,71,0.00,,,0.00,Wunderground v.1.15,2013-01-07 11:55:00,
2013-01-07 07:00:00,36.4,28.2,30.34,NNE,33,5.0,5.0,72,0.00,,,0.00,Wunderground v.1.15,2013-01-07 12:00:00,
2013-01-07 07:05:00,36.3,28.1,30.35,NW,316,4.0,5.0,72,0.00,,,0.00,Wunderground v.1.15,2013-01-07 12:05:00,
2013-01-07 07:09:00,36.3,28.1,30.35,NNW,333,3.0,3.0,72,0.00,,,0.00,Wunderground v.1.15,2013-01-07 12:09:00,
2013-01-07 07:15:00,36.3,28.1,30.35,NNE,22,4.0,6.0,72,0.00,,,0.00,Wunderground v.1.15,2013-01-07 12:15:00,
2013-01-07 07:25:00,36.2,28.0,30.36,NNW,336,4.0,6.0,72,0.00,,,0.00,Wunderground v.1.15,2013-01-07 12:25:00,
2013-01-07 07:35:00,36.1,27.9,30.37,North,349,3.0,4.0,72,0.00,,,0.00,Wunderground v.1.15,2013-01-07 12:35:00,
2013-01-07 07:39:00,36.1,27.6,30.37,NW,314,4.0,6.0,71,0.00,,,0.00,Wunderground v.1.15,2013-01-07 12:39:00,
2013-01-07 07:45:00,36.1,27.9,30.38,NW,308,4.0,6.0,72,0.00,,,0.00,Wunderground v.1.15,2013-01-07 12:45:00,
2013-01-07 07:54:00,36.0,27.8,30.39,NW,311,3.0,4.0,72,0.00,,,0.00,Wunderground v.1.15,2013-01-07 12:54:00,
2013-01-07 08:00:00,36.1,27.9,30.39,NW,323,4.0,6.0,72,0.00,,,0.00,Wunderground v.1.15,2013-01-07 13:00:00,
2013-01-07 08:04:00,36.1,27.9,30.39,NNE,23,4.0,6.0,72,0.00,,,0.00,Wunderground v.1.15,2013-01-07 13:04:00,
2013-01-07 08:10:00,36.1,27.9,30.39,NNW,344,3.0,3.0,72,0.00,,,0.00,Wunderground v.1.15,2013-01-07 13:10:00,
2013-01-07 08:20:00,36.1,27.6,30.39,NNW,342,5.0,5.0,71,0.00,,,0.00,Wunderground v.1.15,2013-01-07 13:20:00,
2013-01-07 08:24:00,36.1,27.6,30.39,NNW,336,5.0,5.0,71,0.00,,,0.00,Wunderground v.1.15,2013-01-07 13:24:00,
2013-01-07 08:30:00,36.1,27.9,30.40,NW,321,4.0,5.0,72,0.00,,,0.00,Wunderground v.1.15,2013-01-07 13:30:00,
2013-01-07 08:34:00,36.1,27.6,30.40,NW,322,4.0,5.0,71,0.00,,,0.00,Wunderground v.1.15,2013-01-07 13:34:00,
2013-01-07 08:40:00,36.1,27.9,30.41,NW,305,4.0,8.0,72,0.00,,,0.00,Wunderground v.1.15,2013-01-07 13:40:00,
2013-01-07 08:45:00,36.0,27.8,30.41,North,358,4.0,8.0,72,0.00,,,0.00,Wunderground v.1.15,2013-01-07 13:45:00,
2013-01-07 08:50:00,36.0,27.8,30.42,West,273,3.0,3.0,72,0.00,,,0.00,Wunderground v.1.15,2013-01-07 13:50:00,
2013-01-07 08:55:00,36.1,27.9,30.42,WNW,292,2.0,3.0,72,0.00,,,0.00,Wunderground v.1.15,2013-01-07 13:55:00,
2013-01-07 08:59:00,36.1,28.3,30.42,West,266,1.0,2.0,73,0.00,,,0.00,Wunderground v.1.15,2013-01-07 13:59:00,
2013-01-07 09:05:00,36.1,28.3,30.43,West,280,1.0,2.0,73,0.00,,,0.00,Wunderground v.1.15,2013-01-07 14:05:00,
2013-01-07 09:09:00,36.1,28.3,30.43,West,277,1.0,1.0,73,0.00,,,0.00,Wunderground v.1.15,2013-01-07 14:09:00,
2013-01-07 09:15:00,36.1,28.3,30.43,West,277,1.0,1.0,73,0.00,,,0.00,Wunderground v.1.15,2013-01-07 14:15:00,
2013-01-07 09:19:00,36.1,28.3,30.43,NW,323,0.0,1.0,73,0.00,,,0.00,Wunderground v.1.15,2013-01-07 14:19:00,
2013-01-07 09:25:00,36.1,27.9,30.43,NW,323,0.0,1.0,72,0.00,,,0.00,Wunderground v.1.15,2013-01-07 14:25:00,
2013-01-07 09:29:00,36.2,28.0,30.43,West,273,1.0,1.0,72,0.00,,,0.00,Wunderground v.1.15,2013-01-07 14:29:00,
2013-01-07 09:35:00,36.2,28.4,30.44,West,273,1.0,1.0,73,0.00,,,0.00,Wunderground v.1.15,2013-01-07 14:35:00,
2013-01-07 09:39:00,36.2,28.0,30.44,West,273,0.0,0.0,72,0.00,,,0.00,Wunderground v.1.15,2013-01-07 14:39:00,
2013-01-07 09:45:00,36.2,28.4,30.44,WNW,292,1.0,2.0,73,0.00,,,0.00,Wunderground v.1.15,2013-01-07 14:45:00,
2013-01-07 09:50:00,36.3,28.1,30.45,West,277,1.0,2.0,72,0.00,,,0.00,Wunderground v.1.15,2013-01-07 14:50:00,
2013-01-07 09:54:00,36.4,28.2,30.45,West,281,1.0,2.0,72,0.00,,,0.00,Wunderground v.1.15,2013-01-07 14:54:00,
2013-01-07 10:00:00,36.4,27.9,30.45,NNW,328,2.0,2.0,71,0.00,,,0.00,Wunderground v.1.15,2013-01-07 15:00:00,
2013-01-07 10:04:00,36.5,28.3,30.45,WNW,302,2.0,2.0,72,0.00,,,0.00,Wunderground v.1.15,2013-01-07 15:04:00,
2013-01-07 10:10:00,36.8,28.3,30.45,West,280,2.0,2.0,71,0.00,,,0.00,Wunderground v.1.15,2013-01-07 15:10:00,
2013-01-07 10:20:00,36.8,28.3,30.46,WNW,297,3.0,3.0,71,0.00,,,0.00,Wunderground v.1.15,2013-01-07 15:20:00,
2013-01-07 10:25:00,36.7,27.8,30.46,North,359,3.0,5.0,70,0.00,,,0.00,Wunderground v.1.15,2013-01-07 15:25:00,
2013-01-07 10:29:00,36.7,28.2,30.46,NW,316,2.0,2.0,71,0.00,,,0.00,Wunderground v.1.15,2013-01-07 15:29:00,
2013-01-07 10:35:00,36.8,27.9,30.47,NW,311,2.0,2.0,70,0.00,,,0.00,Wunderground v.1.15,2013-01-07 15:35:00,
2013-01-07 10:45:00,36.7,27.8,30.47,North,360,2.0,2.0,70,0.00,,,0.00,Wunderground v.1.15,2013-01-07 15:45:00,
2013-01-07 10:49:00,36.6,27.7,30.47,NNW,342,2.0,2.0,70,0.00,,,0.00,Wunderground v.1.15,2013-01-07 15:49:00,
2013-01-07 10:55:00,36.6,27.7,30.47,NNW,334,2.0,2.0,70,0.00,,,0.00,Wunderground v.1.15,2013-01-07 15:55:00,
2013-01-07 10:59:00,36.7,27.8,30.47,NW,325,2.0,4.0,70,0.00,,,0.00,Wunderground v.1.15,2013-01-07 15:59:00,
2013-01-07 11:05:00,36.6,27.4,30.46,NNW,330,2.0,4.0,69,0.00,,,0.00,Wunderground v.1.15,2013-01-07 16:05:00,
2013-01-07 11:09:00,36.6,27.4,30.46,NW,307,3.0,3.0,69,0.00,,,0.00,Wunderground v.1.15,2013-01-07 16:09:00,
2013-01-07 11:15:00,36.7,27.5,30.46,NW,311,2.0,4.0,69,0.00,,,0.00,Wunderground v.1.15,2013-01-07 16:15:00,
2013-01-07 11:19:00,36.7,27.1,30.45,NW,316,2.0,4.0,68,0.00,,,0.00,Wunderground v.1.15,2013-01-07 16:19:00,
2013-01-07 11:25:00,36.8,27.2,30.46,NNW,340,2.0,4.0,68,0.00,,,0.00,Wunderground v.1.15,2013-01-07 16:25:00,
2013-01-07 11:29:00,37.1,27.5,30.45,NW,307,1.0,1.0,68,0.00,,,0.00,Wunderground v.1.15,2013-01-07 16:29:00,
2013-01-07 11:35:00,37.1,27.2,30.45,NNE,14,2.0,2.0,67,0.00,,,0.00,Wunderground v.1.15,2013-01-07 16:35:00,
2013-01-07 11:40:00,37.0,27.1,30.45,NNE,18,2.0,2.0,67,0.00,,,0.00,Wunderground v.1.15,2013-01-07 16:40:00,
2013-01-07 11:44:00,37.1,27.2,30.45,NNW,344,2.0,2.0,67,0.00,,,0.00,Wunderground v.1.15,2013-01-07 16:44:00,
2013-01-07 11:49:00,37.1,27.2,30.44,NW,307,1.0,1.0,67,0.00,,,0.00,Wunderground v.1.15,2013-01-07 16:49:00,
2013-01-07 11:55:00,37.3,27.3,30.44,NNW,343,2.0,2.0,67,0.00,,,0.00,Wunderground v.1.15,2013-01-07 16:55:00,
2013-01-07 12:00:00,37.3,27.0,30.43,NNE,16,2.0,2.0,66,0.00,,,0.00,Wunderground v.1.15,2013-01-07 17:00:00,
2013-01-07 12:04:00,37.3,26.6,30.44,NW,309,3.0,3.0,65,0.00,,,0.00,Wunderground v.1.15,2013-01-07 17:04:00,
2013-01-07 12:10:00,37.5,27.2,30.43,WSW,255,2.0,2.0,66,0.00,,,0.00,Wunderground v.1.15,2013-01-07 17:10:00,
2013-01-07 12:14:00,37.7,27.7,30.43,WNW,292,2.0,2.0,67,0.00,,,0.00,Wunderground v.1.15,2013-01-07 17:14:00,
2013-01-07 12:20:00,37.7,27.4,30.43,West,270,2.0,2.0,66,0.00,,,0.00,Wunderground v.1.15,2013-01-07 17:20:00,
2013-01-07 12:24:00,37.8,27.5,30.43,NNE,25,1.0,4.0,66,0.00,,,0.00,Wunderground v.1.15,2013-01-07 17:24:00,
2013-01-07 12:30:00,37.7,27.0,30.43,NE,36,2.0,3.0,65,0.00,,,0.00,Wunderground v.1.15,2013-01-07 17:30:00,
2013-01-07 12:45:00,38.1,27.4,30.43,North,352,1.0,2.0,65,0.00,,,0.00,Wunderground v.1.15,2013-01-07 17:45:00,
2013-01-07 12:55:00,39.1,27.2,30.42,WNW,287,1.0,3.0,62,0.00,,,0.00,Wunderground v.1.15,2013-01-07 17:55:00,
2013-01-07 12:59:00,39.1,27.2,30.42,SSW,193,1.0,1.0,62,0.00,,,0.00,Wunderground v.1.15,2013-01-07 17:59:00,
2013-01-07 13:05:00,39.4,27.5,30.42,WSW,257,1.0,2.0,62,0.00,,,0.00,Wunderground v.1.15,2013-01-07 18:05:00,
2013-01-07 13:15:00,38.8,26.9,30.42,WSW,246,3.0,3.0,62,0.00,,,0.00,Wunderground v.1.15,2013-01-07 18:15:00,
2013-01-07 13:25:00,39.3,27.7,30.41,WSW,250,1.0,2.0,63,0.00,,,0.00,Wunderground v.1.15,2013-01-07 18:25:00,
2013-01-07 13:29:00,39.6,28.4,30.42,NNW,334,1.0,5.0,64,0.00,,,0.00,Wunderground v.1.15,2013-01-07 18:29:00,
2013-01-07 13:35:00,40.2,28.2,30.42,West,277,1.0,5.0,62,0.00,,,0.00,Wunderground v.1.15,2013-01-07 18:35:00,
2013-01-07 13:39:00,40.0,27.6,30.41,West,269,1.0,1.0,61,0.00,,,0.00,Wunderground v.1.15,2013-01-07 18:39:00,
2013-01-07 13:45:00,40.0,27.6,30.41,SSW,194,1.0,2.0,61,0.00,,,0.00,Wunderground v.1.15,2013-01-07 18:45:00,
2013-01-07 13:49:00,40.2,28.2,30.41,ESE,104,1.0,4.0,62,0.00,,,0.00,Wunderground v.1.15,2013-01-07 18:49:00,
2013-01-07 13:55:00,40.1,28.1,30.41,East,85,2.0,4.0,62,0.00,,,0.00,Wunderground v.1.15,2013-01-07 18:55:00,
2013-01-07 14:05:00,39.5,27.9,30.41,ENE,62,3.0,5.0,63,0.00,,,0.00,Wunderground v.1.15,2013-01-07 19:05:00,
2013-01-07 14:09:00,39.3,27.7,30.41,NE,51,4.0,4.0,63,0.00,,,0.00,Wunderground v.1.15,2013-01-07 19:09:00,
2013-01-07 14:15:00,39.1,27.9,30.41,NNE,15,3.0,4.0,64,0.00,,,0.00,Wunderground v.1.15,2013-01-07 19:15:00,
2013-01-07 14:20:00,39.1,27.9,30.41,ENE,68,3.0,4.0,64,0.00,,,0.00,Wunderground v.1.15,2013-01-07 19:20:00,
2013-01-07 14:24:00,39.2,27.7,30.41,ESE,122,3.0,4.0,63,0.00,,,0.00,Wunderground v.1.15,2013-01-07 19:24:00,
2013-01-07 14:30:00,39.4,28.6,30.41,ENE,59,2.0,5.0,65,0.00,,,0.00,Wunderground v.1.15,2013-01-07 19:30:00,
2013-01-07 14:35:00,39.8,28.2,30.41,ENE,59,2.0,5.0,63,0.00,,,0.00,Wunderground v.1.15,2013-01-07 19:35:00,
2013-01-07 14:45:00,39.9,27.9,30.41,ESE,117,2.0,2.0,62,0.00,,,0.00,Wunderground v.1.15,2013-01-07 19:45:00,
2013-01-07 14:49:00,39.9,27.9,30.41,SE,128,3.0,3.0,62,0.00,,,0.00,Wunderground v.1.15,2013-01-07 19:49:00,
2013-01-07 14:55:00,40.3,28.7,30.41,ENE,68,2.0,3.0,63,0.00,,,0.00,Wunderground v.1.15,2013-01-07 19:55:00,
2013-01-07 15:00:00,40.7,28.3,30.41,SE,129,2.0,2.0,61,0.00,,,0.00,Wunderground v.1.15,2013-01-07 20:00:00,
2013-01-07 15:05:00,40.9,28.5,30.41,ENE,75,2.0,2.0,61,0.00,,,0.00,Wunderground v.1.15,2013-01-07 20:05:00,
2013-01-07 15:09:00,40.7,28.3,30.41,ESE,120,2.0,2.0,61,0.00,,,0.00,Wunderground v.1.15,2013-01-07 20:09:00,
2013-01-07 15:15:00,40.9,28.5,30.41,ESE,117,1.0,2.0,61,0.00,,,0.00,Wunderground v.1.15,2013-01-07 20:15:00,
2013-01-07 15:19:00,41.1,28.3,30.41,ESE,122,1.0,1.0,60,0.00,,,0.00,Wunderground v.1.15,2013-01-07 20:19:00,
2013-01-07 15:25:00,41.5,28.2,30.41,NE,53,0.0,1.0,59,0.00,,,0.00,Wunderground v.1.15,2013-01-07 20:25:00,
2013-01-07 15:29:00,41.4,28.1,30.41,NNE,13,0.0,0.0,59,0.00,,,0.00,Wunderground v.1.15,2013-01-07 20:29:00,
2013-01-07 15:35:00,41.2,27.9,30.41,East,94,1.0,1.0,59,0.00,,,0.00,Wunderground v.1.15,2013-01-07 20:35:00,
2013-01-07 15:39:00,41.4,27.7,30.41,South,188,1.0,1.0,58,0.00,,,0.00,Wunderground v.1.15,2013-01-07 20:39:00,
2013-01-07 15:45:00,41.6,27.9,30.41,ESE,119,1.0,3.0,58,0.00,,,0.00,Wunderground v.1.15,2013-01-07 20:45:00,
2013-01-07 15:50:00,41.2,27.9,30.41,SW,217,1.0,1.0,59,0.00,,,0.00,Wunderground v.1.15,2013-01-07 20:50:00,
2013-01-07 15:54:00,41.8,28.1,30.41,SW,217,1.0,1.0,58,0.00,,,0.00,Wunderground v.1.15,2013-01-07 20:54:00,
2013-01-07 16:00:00,42.2,28.0,30.41,WSW,253,0.0,1.0,57,0.00,,,0.00,Wunderground v.1.15,2013-01-07 21:00:00,
2013-01-07 16:04:00,41.8,28.1,30.41,West,271,1.0,1.0,58,0.00,,,0.00,Wunderground v.1.15,2013-01-07 21:04:00,
2013-01-07 16:10:00,41.8,27.7,30.41,NNW,344,1.0,1.0,57,0.00,,,0.00,Wunderground v.1.15,2013-01-07 21:10:00,
2013-01-07 16:14:00,41.3,27.6,30.41,NW,319,1.0,1.0,58,0.00,,,0.00,Wunderground v.1.15,2013-01-07 21:14:00,
2013-01-07 16:20:00,41.2,27.9,30.41,NW,325,1.0,1.0,59,0.00,,,0.00,Wunderground v.1.15,2013-01-07 21:20:00,
2013-01-07 16:25:00,40.9,27.7,30.41,North,7,0.0,1.0,59,0.00,,,0.00,Wunderground v.1.15,2013-01-07 21:25:00,
2013-01-07 16:29:00,41.1,27.9,30.41,North,4,0.0,1.0,59,0.00,,,0.00,Wunderground v.1.15,2013-01-07 21:29:00,
2013-01-07 16:35:00,41.0,27.8,30.41,NW,308,0.0,1.0,59,0.00,,,0.00,Wunderground v.1.15,2013-01-07 21:35:00,
2013-01-07 16:39:00,40.9,28.1,30.41,NW,308,0.0,0.0,60,0.00,,,0.00,Wunderground v.1.15,2013-01-07 21:39:00,
2013-01-07 16:45:00,40.5,27.7,30.41,NW,308,0.0,0.0,60,0.00,,,0.00,Wunderground v.1.15,2013-01-07 21:45:00,
2013-01-07 16:49:00,40.4,28.0,30.41,NW,308,0.0,0.0,61,0.00,,,0.00,Wunderground v.1.15,2013-01-07 21:49:00,
2013-01-07 16:54:00,40.3,27.9,30.42,NW,308,0.0,0.0,61,0.00,,,0.00,Wunderground v.1.15,2013-01-07 21:54:00,
2013-01-07 17:00:00,39.6,28.0,30.42,NW,308,0.0,0.0,63,0.00,,,0.00,Wunderground v.1.15,2013-01-07 22:00:00,
2013-01-07 17:04:00,38.5,28.5,30.42,NW,308,0.0,0.0,67,0.00,,,0.00,Wunderground v.1.15,2013-01-07 22:04:00,
2013-01-07 17:10:00,37.2,28.7,30.42,WNW,293,1.0,1.0,71,0.00,,,0.00,Wunderground v.1.15,2013-01-07 22:10:00,
2013-01-07 17:14:00,36.5,28.0,30.42,WNW,290,0.0,1.0,71,0.00,,,0.00,Wunderground v.1.15,2013-01-07 22:14:00,
2013-01-07 17:20:00,36.0,28.2,30.42,WNW,290,0.0,0.0,73,0.00,,,0.00,Wunderground v.1.15,2013-01-07 22:20:00,
2013-01-07 17:24:00,35.2,27.7,30.42,WNW,290,0.0,0.0,74,0.00,,,0.00,Wunderground v.1.15,2013-01-07 22:24:00,
2013-01-07 17:30:00,34.5,27.7,30.42,West,267,0.0,1.0,76,0.00,,,0.00,Wunderground v.1.15,2013-01-07 22:30:00,
2013-01-07 17:34:00,33.7,27.3,30.42,WNW,288,1.0,1.0,77,0.00,,,0.00,Wunderground v.1.15,2013-01-07 22:34:00,
2013-01-07 17:40:00,33.5,27.4,30.42,West,274,1.0,1.0,78,0.00,,,0.00,Wunderground v.1.15,2013-01-07 22:40:00,
2013-01-07 17:44:00,33.2,27.1,30.42,West,274,0.0,1.0,78,0.00,,,0.00,Wunderground v.1.15,2013-01-07 22:44:00,
2013-01-07 17:50:00,33.1,26.7,30.42,West,274,0.0,0.0,77,0.00,,,0.00,Wunderground v.1.15,2013-01-07 22:50:00,
2013-01-07 17:54:00,32.7,26.3,30.42,SE,142,0.0,0.0,77,0.00,,,0.00,Wunderground v.1.15,2013-01-07 22:54:00,
2013-01-07 18:00:00,31.8,26.0,30.42,SE,135,0.0,1.0,79,0.00,,,0.00,Wunderground v.1.15,2013-01-07 23:00:00,
2013-01-07 18:04:00,31.7,26.2,30.42,West,262,1.0,2.0,80,0.00,,,0.00,Wunderground v.1.15,2013-01-07 23:04:00,
2013-01-07 18:10:00,31.4,25.9,30.42,WNW,298,1.0,1.0,80,0.00,,,0.00,Wunderground v.1.15,2013-01-07 23:10:00,
2013-01-07 18:14:00,31.0,25.6,30.42,WNW,298,0.0,1.0,80,0.00,,,0.00,Wunderground v.1.15,2013-01-07 23:14:00,
2013-01-07 18:20:00,30.8,25.7,30.42,WNW,297,0.0,0.0,81,0.00,,,0.00,Wunderground v.1.15,2013-01-07 23:20:00,
2013-01-07 18:24:00,30.6,25.5,30.41,West,273,0.0,1.0,81,0.00,,,0.00,Wunderground v.1.15,2013-01-07 23:24:00,
2013-01-07 18:29:00,30.2,25.1,30.42,West,273,0.0,0.0,81,0.00,,,0.00,Wunderground v.1.15,2013-01-07 23:29:00,
2013-01-07 18:35:00,30.0,25.2,30.42,West,273,0.0,0.0,82,0.00,,,0.00,Wunderground v.1.15,2013-01-07 23:35:00,
2013-01-07 18:39:00,29.7,24.9,30.42,West,273,0.0,0.0,82,0.00,,,0.00,Wunderground v.1.15,2013-01-07 23:39:00,
2013-01-07 18:45:00,29.5,25.0,30.42,West,273,0.0,0.0,83,0.00,,,0.00,Wunderground v.1.15,2013-01-07 23:45:00,
2013-01-07 18:55:00,29.0,24.8,30.42,West,273,0.0,1.0,84,0.00,,,0.00,Wunderground v.1.15,2013-01-07 23:55:00,
2013-01-07 19:00:00,28.7,24.5,30.42,West,273,0.0,0.0,84,0.00,,,0.00,Wunderground v.1.15,2013-01-08 00:00:00,
2013-01-07 19:05:00,28.8,24.9,30.42,West,273,1.0,1.0,85,0.00,,,0.00,Wunderground v.1.15,2013-01-08 00:05:00,
2013-01-07 19:10:00,28.8,24.9,30.42,West,273,1.0,1.0,85,0.00,,,0.00,Wunderground v.1.15,2013-01-08 00:10:00,
2013-01-07 19:20:00,28.7,24.8,30.43,West,273,1.0,1.0,85,0.00,,,0.00,Wunderground v.1.15,2013-01-08 00:20:00,
2013-01-07 19:24:00,28.9,25.0,30.42,West,277,1.0,1.0,85,0.00,,,0.00,Wunderground v.1.15,2013-01-08 00:24:00,
2013-01-07 19:29:00,28.9,24.7,30.42,West,267,1.0,1.0,84,0.00,,,0.00,Wunderground v.1.15,2013-01-08 00:29:00,
2013-01-07 19:35:00,28.7,24.8,30.43,West,267,0.0,1.0,85,0.00,,,0.00,Wunderground v.1.15,2013-01-08 00:35:00,
2013-01-07 19:44:00,27.9,24.0,30.42,WSW,249,0.0,0.0,85,0.00,,,0.00,Wunderground v.1.15,2013-01-08 00:44:00,
2013-01-07 19:50:00,27.7,24.1,30.42,WSW,249,0.0,0.0,86,0.00,,,0.00,Wunderground v.1.15,2013-01-08 00:50:00,
2013-01-07 19:54:00,27.4,23.8,30.42,WSW,249,0.0,0.0,86,0.00,,,0.00,Wunderground v.1.15,2013-01-08 00:54:00,
2013-01-07 20:00:00,26.9,23.3,30.42,WSW,249,0.0,0.0,86,0.00,,,0.00,Wunderground v.1.15,2013-01-08 01:00:00,
2013-01-07 20:04:00,26.5,23.2,30.42,WSW,249,0.0,0.0,87,0.00,,,0.00,Wunderground v.1.15,2013-01-08 01:04:00,
2013-01-07 20:10:00,26.4,23.3,30.42,West,271,0.0,0.0,88,0.00,,,0.00,Wunderground v.1.15,2013-01-08 01:10:00,
2013-01-07 20:15:00,26.2,23.1,30.42,West,271,0.0,0.0,88,0.00,,,0.00,Wunderground v.1.15,2013-01-08 01:15:00,
2013-01-07 20:25:00,26.3,23.2,30.42,West,273,0.0,0.0,88,0.00,,,0.00,Wunderground v.1.15,2013-01-08 01:25:00,
2013-01-07 20:29:00,26.2,23.1,30.42,West,273,0.0,0.0,88,0.00,,,0.00,Wunderground v.1.15,2013-01-08 01:29:00,
2013-01-07 20:35:00,26.2,23.4,30.43,West,273,0.0,0.0,89,0.00,,,0.00,Wunderground v.1.15,2013-01-08 01:35:00,
2013-01-07 20:39:00,26.5,23.7,30.42,West,273,0.0,1.0,89,0.00,,,0.00,Wunderground v.1.15,2013-01-08 01:39:00,
2013-01-07 20:44:00,26.5,23.4,30.42,West,273,0.0,1.0,88,0.00,,,0.00,Wunderground v.1.15,2013-01-08 01:44:00,
2013-01-07 20:50:00,26.2,23.1,30.42,West,276,0.0,1.0,88,0.00,,,0.00,Wunderground v.1.15,2013-01-08 01:50:00,
2013-01-07 21:00:00,25.6,22.5,30.42,SE,125,0.0,2.0,88,0.00,,,0.00,Wunderground v.1.15,2013-01-08 02:00:00,
2013-01-07 21:04:00,25.7,22.9,30.42,SE,127,0.0,2.0,89,0.00,,,0.00,Wunderground v.1.15,2013-01-08 02:04:00,
2013-01-07 21:10:00,25.8,23.3,30.42,SE,127,0.0,0.0,90,0.00,,,0.00,Wunderground v.1.15,2013-01-08 02:10:00,
2013-01-07 21:14:00,25.6,22.8,30.42,SE,127,0.0,0.0,89,0.00,,,0.00,Wunderground v.1.15,2013-01-08 02:14:00,
2013-01-07 21:19:00,25.3,22.5,30.42,West,263,0.0,0.0,89,0.00,,,0.00,Wunderground v.1.15,2013-01-08 02:19:00,
2013-01-07 21:25:00,25.1,22.6,30.42,West,275,1.0,1.0,90,0.00,,,0.00,Wunderground v.1.15,2013-01-08 02:25:00,
2013-01-07 21:29:00,25.1,22.8,30.42,West,275,1.0,1.0,91,0.00,,,0.00,Wunderground v.1.15,2013-01-08 02:29:00,
2013-01-07 21:35:00,25.0,22.5,30.41,West,276,0.0,1.0,90,0.00,,,0.00,Wunderground v.1.15,2013-01-08 02:35:00,
2013-01-07 21:39:00,24.9,22.4,30.41,West,277,0.0,0.0,90,0.00,,,0.00,Wunderground v.1.15,2013-01-08 02:39:00,
2013-01-07 21:49:00,24.9,22.9,30.41,West,278,1.0,1.0,92,0.00,,,0.00,Wunderground v.1.15,2013-01-08 02:49:00,
2013-01-07 21:59:00,24.6,22.3,30.41,West,277,0.0,0.0,91,0.00,,,0.00,Wunderground v.1.15,2013-01-08 02:59:00,
2013-01-07 22:05:00,24.4,22.2,30.41,West,277,0.0,0.0,91,0.00,,,0.00,Wunderground v.1.15,2013-01-08 03:05:00,
2013-01-07 22:09:00,24.5,22.2,30.41,West,277,0.0,0.0,91,0.00,,,0.00,Wunderground v.1.15,2013-01-08 03:09:00,
2013-01-07 22:15:00,24.1,21.6,30.41,West,277,0.0,0.0,90,0.00,,,0.00,Wunderground v.1.15,2013-01-08 03:15:00,
2013-01-07 22:24:00,23.2,20.7,30.41,West,277,0.0,0.0,90,0.00,,,0.00,Wunderground v.1.15,2013-01-08 03:24:00,
2013-01-07 22:29:00,23.1,20.9,30.41,West,277,0.0,0.0,91,0.00,,,0.00,Wunderground v.1.15,2013-01-08 03:29:00,
2013-01-07 22:35:00,23.3,21.3,30.41,West,277,0.0,0.0,92,0.00,,,0.00,Wunderground v.1.15,2013-01-08 03:35:00,
2013-01-07 22:45:00,23.2,21.2,30.41,West,277,0.0,0.0,92,0.00,,,0.00,Wunderground v.1.15,2013-01-08 03:45:00,
2013-01-07 22:49:00,23.2,21.2,30.41,West,277,0.0,0.0,92,0.00,,,0.00,Wunderground v.1.15,2013-01-08 03:49:00,
2013-01-07 22:54:00,23.0,21.0,30.40,SW,231,0.0,0.0,92,0.00,,,0.00,Wunderground v.1.15,2013-01-08 03:54:00,
2013-01-07 23:00:00,22.9,20.9,30.40,West,264,0.0,0.0,92,0.00,,,0.00,Wunderground v.1.15,2013-01-08 04:00:00,
2013-01-07 23:05:00,22.8,20.8,30.40,West,264,0.0,1.0,92,0.00,,,0.00,Wunderground v.1.15,2013-01-08 04:05:00,
2013-01-07 23:09:00,23.0,21.3,30.40,West,264,0.0,0.0,93,0.00,,,0.00,Wunderground v.1.15,2013-01-08 04:09:00,
2013-01-07 23:14:00,22.9,20.9,30.40,West,264,0.0,0.0,92,0.00,,,0.00,Wunderground v.1.15,2013-01-08 04:14:00,
2013-01-07 23:20:00,22.8,20.8,30.40,West,264,0.0,0.0,92,0.00,,,0.00,Wunderground v.1.15,2013-01-08 04:20:00,
2013-01-07 23:24:00,22.6,20.6,30.40,West,264,0.0,0.0,92,0.00,,,0.00,Wunderground v.1.15,2013-01-08 04:24:00,
2013-01-07 23:30:00,22.5,20.5,30.40,West,264,0.0,0.0,92,0.00,,,0.00,Wunderground v.1.15,2013-01-08 04:30:00,
2013-01-07 23:34:00,22.8,21.1,30.40,West,262,0.0,0.0,93,0.00,,,0.00,Wunderground v.1.15,2013-01-08 04:34:00,
2013-01-07 23:40:00,22.7,21.0,30.40,West,263,0.0,0.0,93,0.00,,,0.00,Wunderground v.1.15,2013-01-08 04:40:00,
2013-01-07 23:44:00,22.6,20.9,30.39,West,262,0.0,0.0,93,0.00,,,0.00,Wunderground v.1.15,2013-01-08 04:44:00,
2013-01-07 23:49:00,22.4,20.4,30.40,West,262,0.0,0.0,92,0.00,,,0.00,Wunderground v.1.15,2013-01-08 04:49:00,
2013-01-07 23:55:00,22.4,20.7,30.39,West,263,0.0,0.0,93,0.00,,,0.00,Wunderground v.1.15,2013-01-08 04:55:00,